VIZARD-METEO (RS38S)

Last updated on Sat Jul 18 2026 00:03:17 GMT+0000 (Coordinated Universal Time)

1 57189U 23091Z 26198.69120775 .00008613 00000+0 24080-3 0 9992 2 57189 97.5074 268.8059 0005461 329.1302 30.9620 15.36920620169378
UTC large
Height (km)
Speed (km/s)
/
Latitude / Longitude
Inclination (degrees)
Orbital Period (minutes)
Azimuth
Elevation
Range (km)
Doppler Factor

Next 0 passes for location: London (51.5072 / 0.1276)

No passes found over London.
VIZARD-METEO (RS38S)